www.pogodaiklimat.ru

Погода и климат >> Архив погоды >> Бельгия >> Buzenol


ПОГОДА в Buzenol

  • Прогноз погоды в Buzenol
  • Монитор погоды в Buzenol
  • Климат города

АРХИВ ПОГОДЫ в Buzenol

Время (UTC), дата Ветер
(напр.,м/с)
 
Видим.   Явления Облачность Т
(С)
Тd
(С)
f
(%)
Тe
(С)
Тes
(С)
Комфортность P
(гПа)
Po
(гПа)
Тmin
(С)
Tmax
(С)
R
(мм)
R24
(мм)
S
(см)
22 11.08 С 2 н/о н/о +10.5 +9.1 91 +9 +9 1023.1 984.0
23 11.08 С 2 н/о н/о +9.7 +8.6 93 +8 +8 1022.8 983.7
00 12.08 С 2 н/о н/о +9.2 +8.2 93 +7 +7 1022.5 983.3 190
02 12.08 С 2 н/о н/о +8.1 +7.2 94 +6 +6 1021.8 982.5
01 12.08 С 2 н/о н/о +8.6 +7.7 94 +7 +7 1022.1 982.9
03 12.08 СВ 2 н/о н/о +7.6 +6.8 95 +5 +5 1021.4 982.0
04 12.08 СВ 3 н/о н/о +7.2 +6.4 95 +4 +4 1020.7 981.3
05 12.08 СВ 2 н/о н/о +7.2 +6.4 95 +5 +5 1020.3 981.0 1
06 12.08 СВ 2 н/о н/о +8.5 +7.6 94 +6 +6 1020.1 980.9 +7.1 21
08 12.08 ЮЗ 2 н/о н/о +17.3 +9.8 61 +18 +18 1018.2 980.3 119
07 12.08 СВ 1 н/о н/о +13.9 +11.3 84 +14 +14 1018.9 980.6 72
09 12.08 Ю 3 н/о н/о +19.8 +9.4 51 +21 +21 комфорт 1017.4 979.8 172
10 12.08 Ю 3 н/о н/о +21.9 +8.7 43 +23 +23 комфорт 1016.7 979.4 204
11 12.08 Ю 4 н/о н/о +22.7 +7.9 39 +24 +24 комфорт 1016.1 978.9 227
12 12.08 ЮЗ 3 н/о н/о +23.9 +7.1 34 +24 +24 комфорт 1015.1 978.0 246
14 12.08 ЮЗ 4 н/о н/о +25.3 +6.5 30 +25 +25 комфорт 1013.5 976.6 213
13 12.08 ЮЗ 3 н/о н/о +24.6 +5.4 29 +24 +24 комфорт 1014.3 977.3 241
15 12.08 ЮЗ 4 н/о н/о +25.0 +7.0 32 +25 +25 комфорт 1012.7 975.9 148
16 12.08 З 4 н/о н/о +25.3 +6.6 30 +25 +25 комфорт 1011.8 975.0 136
17 12.08 ЮЗ 3 н/о н/о +25.4 +7.8 33 +26 +26 жарко 1011.1 974.3 109
18 12.08 З 2 н/о н/о +24.3 +10.2 41 +25 +25 комфорт 1010.7 973.8 +25.7 63
20 12.08 СВ 2 н/о н/о +16.3 +12.3 77 +16 +16 1011.1 973.3
19 12.08 СВ 2 н/о н/о +18.7 +12.7 68 +20 +20 1011.1 973.6 10
21 12.08 СВ 2 н/о н/о +14.5 +11.8 84 +14 +14 1010.9 972.9
22 12.08 В 1 н/о н/о +14.2 +11.3 83 +15 +15 1011.1 973.0
23 12.08 В 1 н/о н/о +14.2 +10.8 80 +15 +15 1010.1 972.0
00 13.08 В 1 н/о н/о +13.8 +10.4 80 +14 +14 1009.4 971.3 198
02 13.08 С 1 н/о н/о +15.0 +12.6 86 +15 +15 1009.0 971.1
01 13.08 В 1 н/о н/о +13.8 +10.6 81 +14 +14 1008.8 970.7
03 13.08 СВ 1 н/о н/о +14.4 +13.3 93 +15 +15 1007.7 969.8
04 13.08 СЗ 3 н/о н/о +15.1 +13.5 90 +14 +14 1009.6 971.7
05 13.08 ЮВ 2 н/о н/о +15.1 +13.6 91 +15 +15 1008.0 970.2
06 13.08 Ю 2 н/о н/о +15.0 +14.0 94 +15 +15 1008.9 971.1 +13.7 3
08 13.08 ЮЗ 3 н/о н/о +16.6 +15.2 91 +16 +16 1009.1 971.5 59
07 13.08 СЗ 2 н/о н/о +15.3 +14.2 93 +15 +15 1010.0 972.1 8
09 13.08 ЮЗ 6 н/о н/о +17.9 +15.5 86 +17 +17 1008.9 971.4 99
10 13.08 З 5 н/о н/о +18.4 +15.2 82 +19 +19 1009.1 971.7 75
11 13.08 З 6 н/о н/о +19.4 +14.6 74 +21 +21 комфорт 1009.0 971.7 137
12 13.08 З 5 н/о н/о +20.0 +14.3 70 +22 +22 комфорт 1009.0 971.7 169
14 13.08 З 6 н/о н/о +20.7 +13.6 64 +23 +23 комфорт 1008.4 971.3 153
13 13.08 З 7 н/о н/о +20.4 +13.5 65 +22 +22 комфорт 1008.7 971.6 156
15 13.08 СЗ 4 н/о н/о +16.2 +14.1 87 +15 +15 1009.5 971.8 67
16 13.08 З 3 н/о н/о +18.1 +15.8 86 +18 +18 1009.0 971.6 129
17 13.08 СЗ 4 н/о н/о +18.8 +13.8 73 +20 +20 1009.4 972.0 81
18 13.08 З 2 н/о н/о +17.5 +13.8 79 +18 +18 1009.6 972.0 +21.0 43
20 13.08 СЗ 2 н/о н/о +16.0 +13.1 83 +16 +16 1011.2 973.4
19 13.08 СЗ 2 н/о н/о +16.8 +13.0 78 +17 +17 1010.4 972.7 9
21 13.08 З 2 н/о н/о +15.7 +13.4 86 +16 +16 1011.7 973.8
22 13.08 З 2 н/о н/о +15.0 +13.2 89 +15 +15 1012.4 974.4
23 13.08 З 2 н/о н/о +14.5 +13.1 91 +14 +14 1013.0 974.9
00 14.08 З 2 н/о н/о +13.8 +12.7 93 +13 +13 1013.5 975.3 119
02 14.08 С 1 н/о н/о +13.5 +12.1 91 +14 +14 1013.8 975.5
01 14.08 СЗ 2 н/о н/о +14.2 +12.8 91 +14 +14 1013.4 975.3
03 14.08 ЮЗ 1 н/о н/о +12.7 +11.5 92 +13 +13 1014.3 975.9
04 14.08 З 2 н/о н/о +13.6 +12.6 94 +13 +13 1014.2 976.0
05 14.08 СЗ 2 н/о н/о +14.1 +12.7 91 +14 +14 1014.6 976.4
06 14.08 СЗ 2 н/о н/о +14.2 +12.8 91 +14 +14 1015.5 977.3 +12.7 7
08 14.08 СЗ 3 н/о н/о +14.9 +13.2 90 +14 +14 1016.6 978.4 32
07 14.08 СЗ 1 н/о н/о +14.3 +12.9 91 +15 +15 1016.1 977.9 13
09 14.08 СЗ 2 н/о н/о +15.5 +13.4 87 +15 +15 1017.1 979.0 43
10 14.08 СЗ 2 н/о н/о +16.1 +13.9 87 +16 +16 1017.4 979.4 47
11 14.08 З 3 н/о н/о +17.1 +14.5 85 +17 +17 1017.5 979.6 79
12 14.08 СЗ 4 н/о н/о +17.7 +14.3 80 +17 +17 1017.5 979.7 104
14 14.08 СЗ 2 н/о н/о +20.1 +14.5 70 +23 +23 комфорт 1017.3 979.9 138
13 14.08 СЗ 4 н/о н/о +19.3 +14.5 74 +21 +21 комфорт 1017.3 979.7 162
15 14.08 СЗ 2 н/о н/о +20.1 +14.2 69 +23 +23 комфорт 1017.7 980.2 95
16 14.08 СЗ 2 н/о н/о +20.1 +14.8 72 +23 +23 комфорт 1017.8 980.3 52
17 14.08 СЗ 1 н/о н/о +19.8 +15.2 75 +23 +23 комфорт 1017.8 980.3 37
18 14.08 СЗ 1 н/о н/о +19.9 +14.5 71 +23 +23 комфорт 1017.9 980.3 +20.6 38
20 14.08 СВ 2 н/о н/о +16.4 +14.9 91 +16 +16 1019.3 981.3
19 14.08 СВ 1 н/о н/о +17.6 +15.3 86 +19 +19 1018.6 980.7 10
21 14.08 С 1 н/о н/о +16.4 +15.2 93 +17 +17 1019.9 981.8
22 14.08 С 1 н/о н/о +16.3 +14.8 91 +17 +17 1020.2 982.1
23 14.08 С 1 н/о н/о +14.9 +13.7 93 +15 +15 1020.7 982.4
00 15.08 н/о н/о +14.1 +12.9 92 1020.9 982.5 86
02 15.08 СВ 1 н/о н/о +13.0 +12.1 94 +13 +13 1020.6 982.0
01 15.08 С 1 н/о н/о +13.9 +13.1 95 +14 +14 1020.5 982.1
03 15.08 штиль 0 н/о н/о +13.0 +12.1 94 +12 +12 1020.7 982.1
04 15.08 СВ 2 н/о н/о +11.7 +10.9 95 +10 +10 1020.9 982.1
05 15.08 СВ 1 н/о н/о +11.1 +10.3 95 +11 +11 1021.2 982.3
06 15.08 С 1 н/о н/о +12.2 +11.5 95 +12 +12 1021.4 982.7 +11.1 19
08 15.08 С 2 н/о н/о +16.8 +13.4 80 +17 +17 1021.5 983.4 104
07 15.08 ЮЗ 1 н/о н/о +14.4 +13.3 93 +15 +15 1021.5 983.1 53
09 15.08 С 3 н/о н/о +17.6 +13.3 76 +18 +18 1021.7 983.7 100
10 15.08 СЗ 3 н/о н/о +19.0 +13.5 70 +20 +20 1021.3 983.6 167
11 15.08 СЗ 2 н/о н/о +18.9 +13.1 69 +20 +20 1021.2 983.4 125
12 15.08 З 2 н/о н/о +20.2 +12.7 62 +23 +23 комфорт 1020.8 983.2 154
14 15.08 З 3 н/о н/о +20.9 +13.5 63 +24 +24 комфорт 1020.5 982.9 115
13 15.08 З 3 н/о н/о +20.5 +13.3 63 +23 +23 комфорт 1020.6 983.1 179
15 15.08 З 3 н/о н/о +21.3 +14.0 63 +24 +24 комфорт 1020.2 982.7 149
16 15.08 З 4 н/о н/о +20.8 +13.9 65 +24 +24 комфорт 1020.1 982.5 134
17 15.08 СЗ 2 н/о н/о +20.8 +13.8 64 +24 +24 комфорт 1019.8 982.2 99
18 15.08 СЗ 2 н/о н/о +19.9 +13.9 68 +22 +22 комфорт 1019.6 982.0 +21.3 54
20 15.08 СВ 1 н/о н/о +15.1 +13.5 90 +16 +16 1020.4 982.1
19 15.08 С 1 н/о н/о +17.2 +14.0 81 +18 +18 1020.0 982.0 9
21 15.08 СВ 2 н/о н/о +13.9 +12.7 92 +13 +13 1020.6 982.1
22 15.08 СВ 2 н/о н/о +12.9 +11.9 94 +12 +12 1020.6 982.0
23 15.08 СВ 2 н/о н/о +11.9 +11.0 94 +11 +11 1020.5 981.8
00 16.08 СВ 2 н/о н/о +11.2 +10.4 95 +10 +10 1020.3 981.5 146
02 16.08 СВ 2 н/о н/о +10.3 +9.5 95 +9 +9 1020.1 981.2
01 16.08 СВ 1 н/о н/о +10.9 +10.1 95 +10 +10 1020.1 981.3
03 16.08 С 2 н/о н/о +9.7 +8.9 95 +8 +8 1019.8 980.8
04 16.08 С 2 н/о н/о +9.3 +8.6 95 +7 +7 1019.6 980.6
05 16.08 С 2 н/о н/о +9.0 +8.3 95 +7 +7 1019.8 980.7
06 16.08 С 2 н/о н/о +10.5 +9.8 95 +9 +9 1019.2 980.3 +9.0 22
08 16.08 Ю 2 н/о н/о +17.7 +14.4 81 +18 +18 1018.0 980.2 120
07 16.08 штиль 0 н/о н/о +14.8 +14.2 96 +14 +14 1018.3 980.1 69
09 16.08 ЮЗ 2 н/о н/о +19.7 +14.7 73 +22 +22 комфорт 1017.4 979.8 168
10 16.08 З 3 н/о н/о +21.3 +13.8 62 +24 +24 комфорт 1017.0 979.6 207
11 16.08 ЮЗ 3 н/о н/о +22.6 +14.1 59 +26 +26 жарко 1016.2 979.0 234
12 16.08 З 2 н/о н/о +23.9 +14.2 55 +26 +26 жарко 1015.6 978.6 244
14 16.08 ЮЗ 2 н/о н/о +25.6 +14.1 49 +28 +28 жарко 1014.5 977.7 224
13 16.08 ЮЗ 4 н/о н/о +25.1 +14.0 50 +27 +27 жарко 1015.0 978.2 241
15 16.08 Ю 2 н/о н/о +26.0 +14.4 49 +28 +28 жарко 1013.9 977.2 192
16 16.08 ЮЗ 1 н/о н/о +26.0 +14.1 48 +28 +28 жарко 1013.4 976.7 150
17 16.08 СВ 1 н/о н/о +25.9 +14.8 50 +28 +28 жарко 1012.7 976.2 91
18 16.08 СВ 1 н/о н/о +22.4 +16.3 68 +27 +27 душно 1013.1 976.0 +26.2 51
20 16.08 С 2 н/о н/о +17.5 +15.9 90 +18 +18 1013.8 976.1
19 16.08 СВ 2 н/о н/о +19.6 +17.1 85 +22 +22 комфорт 1013.6 976.1 6
21 16.08 С 3 н/о н/о +16.4 +15.1 92 +16 +16 1014.0 976.1
22 16.08 С 2 н/о н/о +15.7 +14.6 93 +16 +16 1014.2 976.3
23 16.08 С 2 н/о н/о +15.3 +14.2 93 +15 +15 1014.3 976.2
00 17.08 С 3 н/о н/о +14.7 +13.7 94 +14 +14 1014.1 976.1 202
02 17.08 С 5 н/о н/о +15.7 +13.8 88 +14 +14 1014.1 976.2
01 17.08 С 2 н/о н/о +14.6 +13.5 93 +14 +14 1014.0 975.9
03 17.08 СВ 5 н/о н/о +16.3 +13.9 86 +15 +15 1014.2 976.4
04 17.08 СВ 5 н/о н/о +16.2 +13.7 85 +15 +15 1014.7 976.7
05 17.08 СВ 6 н/о н/о +15.8 +13.2 85 +14 +14 1015.5 977.5
06 17.08 СВ 5 н/о н/о +16.5 +13.9 85 +16 +16 1015.8 977.9 +14.1 19
08 17.08 В 2
{5}
н/о н/о +17.7 +15.4 86 +18 +18 1016.6 978.9
07 17.08 СВ 2 н/о н/о +17.2 +14.2 83 +18 +18 1016.7 978.8 40
09 17.08 СВ 2
{7}
н/о н/о +19.1 +15.1 78 +21 +21 комфорт 1017.2 979.6
10 17.08 З 1 н/о н/о +21.2 +15.5 70 +24 +24 комфорт 1017.2 980.0 189
11 17.08 С 2
{5}
н/о н/о +21.7 +15.0 66 +25 +25 комфорт 1017.5 980.2
12 17.08 С 5 н/о н/о +21.2 +15.4 69 +24 +24 комфорт 1017.7 980.3 182
14 17.08 СВ 4 н/о н/о +19.5 +14.0 71 +21 +21 комфорт 1018.9 981.2 143
13 17.08 СВ 6 н/о н/о +19.2 +14.5 74 +20 +20 1018.7 981.0 184
15 17.08 СВ 5
{10}
н/о н/о +18.9 +12.9 68 +20 +20 1019.0 981.3
16 17.08 С 4 н/о н/о +20.0 +12.8 63 +22 +22 комфорт 1019.0 981.3 136
17 17.08 СВ 4 н/о н/о +19.8 +12.2 62 +21 +21 комфорт 1019.2 981.5 85
18 17.08 СВ 3 н/о н/о +18.8 +11.3 62 +20 +20 1019.6 981.8 +21.9 51
20 17.08 С 2 н/о н/о +13.7 +11.6 87 +13 +13 1021.6 983.1
19 17.08 СВ 1 н/о н/о +16.3 +11.8 75 +17 +17 1020.6 982.4 8
21 17.08 С 2 н/о н/о +12.3 +11.1 92 +11 +11 1022.2 983.4
22 17.08 С 3 н/о н/о +11.6 +10.5 93 +10 +10 1022.4 983.6
23 17.08 С 3 н/о н/о +11.3 +10.3 94 +9 +9 1022.8 983.9
00 18.08 С 3 н/о н/о +11.0 +9.9 93 +9 +9 1023.0 984.0 156
02 18.08 н/о н/о +9.4 +8.5 94 1023.8 984.6
01 18.08 С 2
{3}
н/о н/о +10.3 +9.4 94 +9 +9 1023.3 984.3
03 18.08 СВ 2
{3}
н/о н/о +8.4 +7.6 95 +6 +6 1024.1 984.7
04 18.08 С 3 н/о н/о +8.6 +7.8 95 +6 +6 1024.1 984.7
05 18.08 СЗ 1 н/о н/о +8.0 +7.3 95 +7 +7 1024.4 985.0
06 18.08 СВ 2
{3}
н/о н/о +9.7 +9.0 95 +8 +8 1024.1 984.9 +8.0
08 18.08 ЮЗ 1 н/о н/о +16.0 +12.2 78 +17 +17 1023.7 985.5 114
07 18.08 СВ 2 н/о н/о +12.9 +11.6 92 +12 +12 1023.8 985.1 64
09 18.08 ЮЗ 2 н/о н/о +18.3 +12.1 67 +19 +19 1023.6 985.6 164
10 18.08 З 3 н/о н/о +19.9 +10.0 53 +21 +21 комфорт 1023.4 985.6 207
11 18.08 З 3 н/о н/о +20.5 +10.2 52 +22 +22 комфорт 1023.1 985.5 233
12 18.08 З 4 н/о н/о +21.3 +10.0 48 +23 +23 комфорт 1023.0 985.4 248
14 18.08 С 2 н/о н/о +22.0 +8.3 41 +23 +23 комфорт 1022.1 984.6 225
13 18.08 СЗ 2 н/о н/о +21.7 +9.4 45 +23 +23 комфорт 1022.5 985.0 243
15 18.08 СЗ 3 н/о н/о +22.5 +6.6 36 +23 +23 комфорт 1021.8 984.3 195
16 18.08 СЗ 3 н/о н/о +22.5 +7.7 39 +24 +24 комфорт 1021.7 984.3 152
17 18.08 СЗ 2 н/о н/о +22.2 +8.3 41 +23 +23 комфорт 1021.5 984.0 92
18 18.08 СЗ 2 н/о н/о +21.0 +9.2 47 +23 +23 комфорт 1021.8 984.2 +22.7 52
20 18.08 С 1 н/о н/о +14.7 +11.6 82 +15 +15 1023.4 984.9
19 18.08 С 1 н/о н/о +17.0 +11.1 68 +18 +18 1022.7 984.5 8
21 18.08 С 2 н/о н/о +13.2 +11.5 89 +12 +12 1024.1 985.5

 

Местоположение метеостанции Buzenol (Бельгия): широта 49.62 долгота 5.58 высота над уровнем моря 322 м.

В архиве по умолчанию представлена погода в Buzenol за последнюю неделю. Архивные данные за месяц целиком и за предыдущие месяцы, начиная с января 2011 года, Вы можете получить, выбрав интересующий диапазон дат из раскрывающегося списка и нажав кнопку "Ввод!".


*Определитесь, кто Вы:
робот инопланетянин человек

Внимание! Время в таблицах - всемирное. Для получения местного времени необходимо прибавить поправку, которая в Buzenol равна 1 ч.

Смотрите также архив погоды в соседних городах и на ближайших метеорологических станциях:

Погода в Luxembourg (Люксембург) (45 км)
Погода в Saint Hubert (Бельгия) (47 км)
Погода в Humain (Бельгия) (69 км)
Погода в Charleville (Франция) (71 км)
Погода в Trier (Германия) (80 км)
Погода в Metz-Nancy Airport (Франция) (86 км)
Погода в Berus (Германия) (88 км)
Погода в Dourbes (Бельгия) (88 км)
Погода в Florennes (Бельгия) (95 км)
Погода в Spa (Бельгия) (99 км)

Пояснения к столбцам:

Ветер - указаны скорость ветра в м/с - средняя за 10 мин, порывы в срок и между сроками (в фигурных скобках) и направление, откуда дует ветер: С - северный, СВ - северо-восточный, В - восточный, ЮВ - юго-восточный, Ю - южный, ЮЗ - юго-западный, З - западный, СЗ - северо-западный.
Видимость - горизонтальная дальность видимости в метрах или километрах. При видимости от 1 до 10 км при отсутствии осадков обычно наблюдается дымка, при ухудшении видимости до 1 км и менее - туман. В сухую погоду видимость может ухудшаться дымом, пылью или мглою.
Явления - указаны атмосферные явления, наблюдавшиеся в срок или в последний час перед сроком; фигурными скобками обозначены явления, наблюдавшиеся между сроками (за 1-3 часа до срока); квадратными скобками обозначены град или гололедные отложения с указанием их диаметра в мм.
Облачность - указаны через наклонную черту общая и нижняя облачность в баллах и высота нижней границы облаков в метрах; квадратными скобками обозначены формы облаков: Ci - перистые, Cs - перисто-слоистые, Cc - перисто-кучевые, Ac - высококучевые, As - высокослоистые, Sc - слоисто-кучевые, Ns - слоисто-дождевые, Cu - кучевые, Cb - кучево-дождевые. Подробнее классификацию облаков см. в Атласе облаков (PDF).
T - Температура воздуха - температура, измеренная на высоте 2 м над землей.
Td - Температура точки росы - температура, при понижении до которой содержащийся в воздухе водяной пар достигнет насыщения.
f - Относительная влажность воздуха - влажноcть воздуха, измеренная на высоте 2 м над землей.
Te - Эффективная температура - температура, которую ощущает одетый по сезону человек в тени. Характеристика душности погоды. При расчете учитывается влияние влажности воздуха и скорости ветра на теплоощущения человека.
Tes - Эффективная температура на солнце - температура, которую ощущает человек, с поправкой на солнечный нагрев. Характеристика знойности погоды. Зависит от высоты солнца над горизонтом, облачности и скорости ветра. Ночью, в пасмурную погоду, а также при ветре 12 м/с и более поправка равна нулю.
P - Атмосферное давление - приведенное к уровню моря атмосферное давление.
Po - Атмосферное давление - измеренное на уровне метеостанции атмосферное давление.
Tmin - Минимальная температура - минимум температуры воздуха на высоте 2 м над землей.
Tmax - Максимальная температура - максимум температуры воздуха на высоте 2 м над землей.
R - Количество осадков - Количество выпавших осадков за период времени, мм. При наведении курсора мыши на число - период времени, за который выпало указанное количество осадков.
R24 - Количество осадков - Количество выпавших осадков за 24 часа, мм.
S - Снежный покров - Высота снежного покрова, см. При наведении курсора мыши на число - состояние снежного покрова и степень покрытия местности в баллах.